Dewpoint
-1 0 -0 -0 0 -0 -2 1 2 1 0 -2 -6 -6 -6 -5 -5 -5 -4 1 4 3 3 3 4 4 5 5 5 4 2 1 0 -2 -2 -0 -3 -3 -2 -5 -7 -8 -6 -6
3 2 0 0 -0 -1 -1 -2 -3 -2 -1 -5 -6 -6 -6 -6 -6 -5 -4 -4 -3 1 3 3 4 4 5 5 4 4 3 0 -0 -2 0 -2 -3 -1 -5 -10 -10 -7 -7 -7
4 1 -1 0 -2 -2 -1 -2 -3 -2 -3 -3 -4 -4 -5 -5 -5 -3 -3 -2 -2 -2 -0 4 4 4 5 5 4 3 1 0 -2 -2 -0 -3 -2 -3 -6 -10 -9 -8 -8 -7
4 2 -1 -1 -6 -7 -6 -5 -5 -5 -5 -4 -5 -2 -3 -3 -3 -3 -4 -4 -4 -3 -2 -1 1 5 5 4 3 1 0 -2 -2 -3 -3 -4 -3 -7 -9 -10 -10 -9 -7 -7
3 4 1 -1 -4 -3 -4 -2 -4 -3 -3 -4 -5 -3 0 -1 -2 -2 -2 -2 -2 -2 -0 1 2 4 4 2 -0 -1 -2 -3 -3 -4 -4 -3 -5 -8 -9 -9 -7 -6 -6 -6
4 4 1 2 -5 -5 -6 1 -2 -2 -1 -2 -2 1 2 0 -0 -1 -1 -0 -0 -0 1 2 2 2 0 -1 -1 -3 -3 -3 -3 -2 -4 -5 -5 -8 -9 -6 -8 -7 -5 -6
3 3 4 2 -4 -5 -1 1 -2 -2 -1 -1 0 0 -1 -1 -0 0 1 1 1 1 1 -0 -0 -0 -1 -3 -4 -3 -2 -2 -2 -2 -4 -9 -10 -7 -5 -6 -7 -6 -7 -6
5 6 5 -2 -3 -2 2 -2 -2 -2 -0 0 0 1 1 1 1 1 1 0 0 0 -1 -3 -3 -3 -4 -5 -3 -2 -2 -1 -2 -6 -8 -10 -10 -8 -6 -6 -6 -6 -7 -7
5 5 2 -4 -4 -3 -3 0 1 2 2 2 3 3 3 2 0 -1 -1 -1 -2 -1 -2 -3 -3 -3 -3 -3 -1 -0 -1 -5 -7 -9 -11 -13 -8 -6 -6 -6 -7 -6 -6 -6
2 -0 -1 -2 2 2 1 2 3 3 3 3 3 3 1 -0 -2 -3 -4 -4 -4 -4 -4 -4 -3 -1 -1 -2 -2 -4 -7 -9 -11 -14 -12 -8 -7 -8 -9 -7 -6 -6 -6 -6
1 1 4 3 3 3 3 2 2 2 2 1 1 -1 -1 -2 -3 -3 -3 -4 -4 -3 -2 -2 -3 -2 -4 -5 -8 -10 -12 -15 -15 -14 -14 -13 -12 -10 -8 -6 -6 -6 -8 -7
3 4 3 2 2 2 2 1 1 1 0 -1 -1 -1 -2 -2 -3 -3 -3 -2 -2 -2 -2 -3 -6 -7 -8 -10 -13 -14 -14 -14 -14 -13 -12 -10 -9 -9 -7 -7 -9 -8 -8 -7
3 3 2 2 2 2 1 1 1 1 -0 -0 -1 -1 -1 -2 -2 -2 -2 -2 -4 -6 -6 -6 -7 -9 -10 -11 -11 -11 -12 -12 -11 -10 -9 -8 -7 -7 -7 -8 -8 -9 -9 -9
2 2 2 2 1 1 1 -0 -1 -1 -2 -2 -2 -2 -2 -3 -3 -4 -5 -5 -6 -8 -7 -6 -6 -6 -6 -6 -7 -7 -8 -8 -8 -7 -6 -5 -6 -6 -6 -7 -7 -8 -8 -9
2 3 1 1 0 -0 -1 -2 -2 -2 -3 -3 -3 -4 -4 -4 -4 -5 -5 -5 -6 -10 -11 -11 -11 -10 -10 -10 -10 -9 -7 -6 -5 -5 -5 -5 -5 -5 -5 -5 -6 -7 -8 -8
1 1 0 0 -1 -1 -2 -2 -2 -3 -3 -3 -4 -6 -6 -6 -7 -7 -6 -9 -11 -10 -10 -9 -7 -6 -5 -5 -5 -5 -5 -5 -5 -5 -5 -5 -6 -6 -5 -5 -7 -7 -8 -8
1 -0 -1 -1 -1 -2 -2 -2 -2 -3 -5 -13 -13 -12 -12 -12 -11 -11 -11 -11 -13 -11 -7 -5 -5 -6 -6 -7 -7 -8 -8 -9 -8 -7 -7 -6 -6 -6 -6 -6 -6 -8 -8 -9
0 -0 -1 -2 -2 -2 -3 -4 -6 -13 -13 -11 -11 -11 -12 -14 -16 -17 -19 -18 -17 -9 -7 -7 -9 -10 -12 -18 -19 -16 -13 -11 -12 -14 -15 -13 -9 -7 -6 -7 -7 -7 -9 -9
-1 -2 -2 -3 -3 -4 -7 -11 -11 -11 -10 -10 -13 -16 -17 -18 -19 -20 -20 -17 -15 -11 -12 -10 -12 -21 -24 -17 -13 -14 -17 -16 -12 -11 -11 -12 -11 -10 -9 -8 -7 -8 -9 -9
-2 -3 -3 -4 -5 -10 -8 -7 -8 -10 -13 -16 -16 -17 -18 -20 -24 -24 -20 -13 -10 -11 -13 -21 -25 -23 -19 -18 -20 -19 -13 -12 -12 -11 -10 -9 -9 -9 -9 -7 -8 -8 -8 -8
-3 -5 -7 -11 -11 -8 -7 -7 -10 -14 -15 -15 -16 -18 -22 -26 -25 -22 -20 -14 -13 -16 -22 -23 -23 -22 -21 -20 -19 -17 -15 -14 -13 -13 -12 -11 -10 -9 -9 -8 -8 -8 -9 -9
-8 -11 -11 -9 -9 -9 -9 -12 -14 -14 -14 -15 -17 -22 -25 -25 -23 -19 -15 -16 -17 -20 -23 -23 -23 -21 -20 -19 -19 -18 -16 -16 -15 -15 -15 -14 -13 -12 -12 -12 -12 -11 -11 -11
-7 -7 -6 -7 -8 -9 -12 -13 -13 -13 -15 -17 -19 -22 -21 -21 -18 -18 -16 -17 -17 -19 -21 -20 -21 -21 -20 -19 -18 -18 -17 -17 -17 -17 -16 -15 -15 -15 -14 -14 -14 -13 -14 -13
-7 -5 -4 -5 -9 -10 -11 -12 -13 -13 -14 -16 -17 -18 -18 -20 -18 -17 -15 -17 -17 -18 -18 -18 -19 -19 -19 -19 -19 -18 -18 -18 -17 -17 -17 -17 -17 -16 -16 -16 -16 -16 -15 -15
-5 -6 -8 -9 -9 -10 -11 -13 -13 -15 -17 -20 -20 -19 -21 -17 -16 -15 -15 -17 -17 -17 -17 -18 -18 -18 -19 -19 -19 -19 -19 -18 -18 -18 -18 -18 -18 -18 -18 -17 -17 -17 -17 -16
-7 -8 -8 -9 -9 -11 -13 -18 -21 -20 -22 -24 -22 -19 -20 -15 -14 -15 -16 -16 -18 -18 -17 -18 -18 -19 -19 -19 -20 -20 -20 -19 -19 -19 -19 -19 -19 -19 -19 -18 -18 -18 -18 -18
-8 -9 -10 -10 -11 -12 -19 -22 -24 -25 -23 -20 -18 -18 -16 -14 -15 -16 -16 -17 -18 -18 -18 -19 -19 -19 -19 -20 -20 -20 -20 -20 -20 -20 -20 -20 -21 -22 -22 -21 -21 -21 -20 -20
Wind_Speed
5 6 4 4 5 5 5 6 7 8 6 11 1 7 14 7 5 5 5 11 25 34 39 37 37 34 32 33 35 37 33 28 20 14 15 9 13 16 20 18 18 22 23 24
2 6 7 4 5 8 6 5 1 5 7 6 6 11 14 12 12 9 6 6 10 6 24 29 33 33 33 34 36 38 35 25 16 17 15 15 21 20 14 19 16 20 20 22
3 4 6 6 6 7 5 4 4 4 4 8 9 11 12 10 10 16 10 9 8 8 6 13 19 22 31 32 34 32 24 17 16 16 15 9 11 11 14 16 21 19 22 23
3 3 1 8 1 5 6 6 8 9 7 10 11 23 23 18 17 15 12 11 12 10 10 11 10 20 21 25 29 23 13 13 10 12 11 7 5 9 16 18 19 23 23 24
4 3 5 6 3 2 4 4 5 8 8 15 14 13 18 16 16 14 12 12 11 9 8 6 4 12 21 23 19 16 17 15 10 8 7 3 4 14 17 21 24 22 20 22
2 4 6 6 3 5 4 1 5 13 9 11 12 4 4 11 11 11 10 7 4 4 2 7 15 21 23 21 20 22 16 14 9 6 5 6 12 12 19 24 25 16 20 21
2 2 7 5 6 2 6 6 9 11 11 10 3 1 8 12 9 3 5 3 3 5 8 15 17 19 22 24 22 14 11 8 2 7 10 7 13 17 20 20 18 21 23 24
3 2 6 9 4 6 6 12 10 9 10 10 7 8 10 11 6 5 6 6 6 9 13 15 15 16 19 18 12 6 3 10 11 6 8 15 17 15 18 20 21 26 24 24
7 6 9 9 13 15 14 17 13 13 12 7 9 11 11 10 10 10 8 8 7 7 8 7 4 3 2 4 11 16 17 6 6 11 15 11 12 16 21 23 24 22 23 26
5 2 2 11 25 22 18 16 13 11 7 6 8 5 9 13 14 12 10 8 7 6 6 7 8 10 12 8 4 3 3 7 12 12 13 15 18 21 19 17 21 22 24 28
2 11 22 19 19 17 15 14 12 9 8 11 7 11 10 11 11 9 8 8 8 9 8 6 4 4 4 4 6 9 11 11 12 13 15 17 17 16 14 17 22 28 28 26
4 6 16 13 17 12 12 13 11 7 9 9 7 9 8 11 11 10 8 8 9 10 7 6 5 6 8 10 13 14 14 14 15 16 17 17 17 18 17 23 25 22 23 25
9 13 22 20 12 9 12 12 10 9 10 10 11 10 12 14 15 14 12 10 10 9 8 9 9 11 11 12 14 16 17 16 18 20 20 20 20 22 27 29 28 24 21 21
16 25 19 12 14 11 14 14 13 16 18 19 19 19 17 16 13 12 11 10 8 7 8 10 12 14 14 16 18 21 23 25 27 26 25 25 26 27 28 31 34 33 26 20
11 12 25 21 17 16 16 17 19 20 21 19 16 15 13 12 12 9 6 5 8 9 9 11 12 13 14 15 18 21 23 27 28 31 32 33 35 34 35 30 31 33 31 26
22 22 19 19 22 18 17 18 20 18 14 10 8 6 5 3 3 2 3 7 11 13 13 13 12 14 15 17 19 20 22 23 25 30 34 36 38 38 38 31 33 30 30 29
22 21 22 23 22 20 21 21 18 12 9 8 9 9 7 7 5 6 9 11 12 11 11 12 14 18 21 24 28 31 34 36 35 34 34 33 35 36 35 34 30 29 29 28
9 18 18 23 23 19 15 12 11 10 10 10 9 8 8 9 10 11 13 13 10 8 10 15 20 24 27 27 26 28 30 33 36 37 37 40 37 37 38 38 38 28 27 24
22 24 20 19 16 14 14 14 12 12 11 9 8 9 10 10 11 12 13 13 14 16 19 24 27 28 25 24 26 30 31 30 31 34 34 33 35 38 37 39 33 16 20 20
24 22 19 18 14 13 15 13 11 10 9 7 7 7 9 10 12 12 11 11 13 17 22 25 25 26 27 29 30 30 26 27 29 31 28 32 34 33 33 21 17 16 13 15
18 17 17 16 16 16 13 11 8 6 5 5 7 9 10 10 11 12 13 13 18 23 23 22 25 27 28 28 28 27 27 26 26 28 30 27 25 24 27 26 14 10 11 12
17 16 16 15 15 15 11 8 5 3 4 5 8 9 10 10 12 11 13 16 20 22 22 23 23 24 25 25 25 25 24 24 26 27 27 25 24 22 19 15 11 4 7 10
16 17 15 12 12 10 8 5 3 4 6 8 11 12 13 12 13 15 17 20 21 22 21 22 23 23 23 23 23 23 23 24 25 24 24 22 21 18 16 15 13 12 13 13
17 16 14 10 9 7 5 5 1 4 6 8 11 14 14 14 14 15 18 21 20 22 21 22 23 24 24 23 23 22 22 23 24 23 23 21 20 19 19 19 18 18 18 16
13 13 13 11 11 8 5 5 5 5 6 8 12 13 13 15 16 18 21 20 20 20 22 22 22 22 23 24 24 22 22 22 23 22 22 22 22 21 21 20 19 19 18 17
14 15 15 15 9 6 3 2 5 7 9 11 13 14 11 13 16 19 22 21 21 19 19 23 21 21 22 23 23 23 22 21 22 22 22 22 22 21 21 20 19 19 19 18
15 10 10 9 5 2 3 6 8 9 11 13 13 13 11 14 18 22 22 22 21 17 19 20 20 21 20 20 21 22 22 21 21 21 21 21 22 22 21 20 20 20 20 19
Wind_Direction
292 302 250 233 295 301 239 206 153 235 226 261 141 128 68 132 170 206 182 206 222 217 211 211 209 210 212 211 214 219 224 228 232 209 221 255 243 269 286 281 287 292 286 291
298 331 21 3 321 316 307 307 293 229 237 230 154 88 74 70 63 69 66 33 33 3 222 223 220 213 214 216 218 222 229 216 215 203 207 239 258 277 273 296 293 293 291 281
251 347 5 345 240 238 245 264 245 272 317 69 49 56 45 36 47 60 48 26 353 348 360 233 233 234 219 218 217 212 211 207 202 218 241 221 254 267 303 298 295 289 293 290
185 34 54 242 219 124 99 55 69 73 71 83 68 59 58 71 81 62 49 32 21 6 323 304 277 224 220 222 210 205 197 192 192 177 209 220 286 306 289 293 296 284 281 288
136 186 288 322 17 120 126 42 57 75 43 41 35 71 48 54 53 40 16 7 1 350 344 313 249 207 202 185 179 172 176 179 178 185 187 59 300 290 300 291 291 291 291 285
127 148 203 237 159 51 60 65 51 64 50 38 40 58 288 15 2 341 2 348 351 278 172 144 149 167 167 156 164 162 164 162 148 137 64 286 289 298 287 277 291 301 293 288
131 189 286 240 143 138 95 221 82 67 66 51 66 130 360 352 4 69 52 82 203 195 160 136 156 174 163 162 161 162 176 197 169 324 322 301 285 279 288 302 297 296 291 286
99 95 275 180 104 138 176 91 78 64 52 55 34 17 22 21 53 121 134 131 129 148 141 141 153 175 157 161 152 163 23 323 305 290 267 269 289 304 302 294 285 294 296 293
164 210 226 132 121 124 114 95 64 62 58 48 60 45 41 89 112 115 126 142 151 155 142 127 135 134 147 269 279 281 289 270 255 274 293 303 297 289 286 285 288 293 290 290
83 349 117 97 93 96 104 98 87 81 79 70 73 68 107 125 132 142 137 124 108 87 57 24 354 325 303 295 274 259 290 296 290 297 303 299 293 290 290 292 294 296 295 297
182 118 88 71 85 106 108 106 92 92 80 88 106 109 125 121 118 102 79 60 40 28 30 63 60 35 30 358 342 317 301 302 303 298 294 292 291 297 296 290 289 291 294 293
198 87 104 105 111 128 117 103 101 107 93 91 92 97 94 93 89 88 83 74 75 71 56 40 35 8 343 327 316 312 308 302 298 296 293 299 304 305 303 302 301 296 293 288
136 110 128 134 130 112 112 110 110 107 104 103 97 102 101 99 90 85 76 62 60 54 33 6 342 329 326 321 312 306 300 296 299 301 302 302 300 302 311 310 311 309 306 296
121 132 116 148 121 112 116 113 112 106 100 94 91 84 78 75 73 65 54 43 30 16 11 355 341 333 327 319 312 308 306 306 307 306 303 300 294 292 295 302 303 309 311 303
135 165 135 128 121 114 116 118 108 101 97 90 80 71 64 67 72 67 48 8 354 351 343 333 333 327 316 309 302 300 296 296 298 298 296 293 290 282 283 295 296 297 304 304
120 123 128 123 121 122 114 109 110 114 112 104 108 105 102 106 100 98 357 345 352 358 349 342 336 332 326 322 318 315 309 302 299 297 297 298 295 291 290 288 294 295 296 299
127 122 128 126 126 124 124 127 128 124 115 108 96 89 86 80 63 36 11 355 352 349 342 335 336 328 320 314 310 305 301 300 300 301 304 305 302 294 288 288 288 291 292 298
143 142 138 139 139 134 132 135 130 120 108 98 90 78 61 37 21 8 359 1 352 335 323 315 317 316 318 320 314 310 310 311 311 310 305 297 295 300 289 288 283 276 288 293
132 132 136 139 147 144 135 129 120 111 104 93 74 50 34 17 8 360 355 344 332 328 329 327 323 323 325 322 321 320 322 325 327 326 321 305 307 308 293 285 266 273 287 290
137 140 147 141 142 139 137 131 124 118 98 74 50 32 16 2 353 347 348 329 326 325 322 325 327 330 332 330 331 330 329 321 319 337 336 321 313 314 310 286 282 271 282 289
143 144 142 142 137 138 140 135 129 113 86 41 11 6 2 353 344 345 336 334 330 331 336 335 337 337 339 340 341 337 333 332 329 322 322 346 344 317 306 293 251 237 246 262
142 139 142 142 141 136 134 131 120 82 36 1 352 355 356 352 347 347 331 332 331 334 338 337 339 341 341 343 344 344 342 338 337 336 337 335 336 353 21 33 37 8 275 278
153 149 147 145 142 139 135 126 85 22 5 350 346 349 353 350 342 337 339 336 332 335 338 334 334 334 336 341 343 345 346 344 346 346 346 342 339 338 337 336 331 321 316 314
154 159 160 153 149 150 126 107 356 332 350 339 333 338 338 334 335 334 331 331 328 332 334 333 333 332 335 339 340 341 345 345 345 348 346 344 341 335 332 330 326 321 318 314
160 151 144 146 162 173 177 162 219 284 318 317 320 332 329 324 328 330 326 330 328 328 330 331 332 332 335 339 341 342 342 343 341 343 345 345 341 339 336 334 333 331 326 322
163 160 164 180 194 202 217 253 299 316 315 315 318 329 321 315 317 320 321 324 325 321 325 327 331 333 332 335 341 340 343 345 341 339 345 344 342 340 338 336 333 331 329 325
154 160 176 177 191 238 299 321 325 321 312 315 322 330 318 308 310 313 315 320 324 319 323 326 327 331 333 329 334 336 341 345 342 340 347 345 344 341 340 338 335 333 330 326
Height
1480 1478 1476 1475 1479 1479 1482 1486 1501 1494 1490 1479 1477 1476 1474 1475 1477 1478 1480 1483 1483 1481 1482 1486 1489 1492 1496 1500 1501 1503 1505 1509 1515 1517 1521 1525 1525 1523 1524 1527 1525 1524 1521 1518
1484 1479 1480 1483 1478 1478 1477 1474 1475 1479 1482 1471 1472 1473 1474 1476 1477 1479 1481 1481 1481 1482 1482 1483 1486 1489 1492 1495 1495 1494 1499 1503 1507 1509 1514 1518 1516 1518 1523 1522 1519 1518 1515 1510
1497 1493 1489 1504 1481 1477 1475 1472 1475 1483 1479 1472 1475 1476 1477 1477 1478 1479 1480 1481 1481 1483 1484 1485 1485 1486 1487 1490 1493 1496 1500 1503 1505 1507 1509 1511 1513 1515 1516 1516 1515 1514 1513 1510
1509 1506 1519 1481 1466 1466 1471 1474 1474 1476 1477 1476 1477 1478 1477 1478 1479 1479 1480 1481 1482 1482 1482 1483 1483 1483 1485 1488 1491 1495 1500 1501 1502 1503 1505 1507 1508 1512 1513 1511 1509 1506 1505 1503
1510 1513 1492 1474 1469 1469 1472 1483 1476 1477 1476 1477 1477 1478 1481 1481 1481 1482 1481 1482 1483 1483 1482 1482 1482 1482 1483 1486 1491 1493 1495 1497 1499 1501 1499 1500 1504 1507 1507 1505 1502 1500 1499 1497
1506 1512 1517 1482 1467 1466 1466 1492 1477 1476 1478 1478 1477 1491 1487 1484 1483 1482 1481 1482 1482 1482 1480 1480 1481 1481 1483 1486 1488 1489 1491 1492 1492 1494 1499 1500 1499 1501 1499 1498 1495 1494 1493 1492
1513 1514 1495 1469 1465 1466 1489 1495 1476 1477 1479 1480 1482 1485 1485 1484 1483 1480 1480 1480 1480 1479 1479 1481 1482 1482 1481 1483 1484 1487 1487 1489 1492 1495 1495 1497 1496 1494 1493 1492 1491 1489 1487 1486
1503 1506 1498 1463 1465 1475 1475 1474 1476 1478 1479 1480 1482 1482 1483 1483 1481 1478 1478 1479 1480 1479 1479 1481 1482 1481 1481 1484 1486 1489 1491 1492 1492 1492 1492 1491 1489 1489 1489 1488 1487 1485 1483 1481
1479 1482 1462 1462 1464 1467 1469 1473 1475 1476 1478 1478 1479 1481 1481 1480 1479 1478 1478 1478 1479 1480 1481 1483 1485 1487 1488 1488 1490 1490 1490 1489 1489 1489 1489 1487 1486 1485 1484 1483 1481 1479 1477 1474
1465 1460 1460 1463 1465 1466 1468 1471 1473 1475 1476 1477 1478 1479 1479 1479 1479 1477 1478 1480 1481 1482 1484 1486 1487 1487 1486 1486 1486 1486 1487 1487 1487 1486 1485 1484 1483 1482 1479 1477 1474 1472 1470 1468
1460 1462 1463 1468 1468 1468 1469 1471 1471 1475 1476 1477 1477 1478 1479 1480 1481 1482 1483 1484 1485 1485 1485 1485 1486 1487 1487 1487 1487 1486 1485 1485 1484 1482 1481 1479 1478 1476 1474 1472 1470 1467 1464 1462
1468 1459 1458 1469 1470 1469 1469 1472 1474 1475 1477 1478 1480 1481 1482 1482 1484 1484 1484 1485 1485 1486 1487 1488 1488 1488 1487 1487 1485 1484 1483 1482 1481 1479 1477 1474 1472 1470 1470 1468 1464 1461 1458 1455
1455 1457 1459 1466 1468 1470 1470 1473 1474 1476 1478 1479 1481 1482 1482 1483 1484 1486 1487 1488 1489 1489 1489 1489 1488 1488 1486 1485 1483 1482 1480 1478 1477 1474 1472 1469 1467 1464 1461 1458 1456 1453 1450 1447
1454 1456 1463 1466 1468 1471 1472 1474 1476 1478 1480 1482 1484 1486 1486 1488 1489 1490 1490 1490 1490 1491 1490 1489 1488 1486 1485 1483 1480 1477 1475 1473 1470 1468 1466 1463 1460 1457 1454 1451 1446 1443 1443 1441
1453 1455 1459 1465 1469 1472 1474 1476 1478 1481 1484 1486 1488 1488 1489 1490 1491 1492 1492 1491 1491 1490 1490 1488 1486 1483 1481 1479 1476 1473 1470 1468 1465 1462 1458 1455 1451 1447 1445 1442 1439 1436 1432 1431
1456 1459 1463 1466 1470 1474 1476 1479 1481 1484 1487 1488 1488 1489 1490 1490 1491 1491 1491 1490 1489 1488 1486 1484 1481 1479 1477 1474 1471 1468 1465 1461 1458 1454 1449 1445 1442 1438 1435 1432 1430 1426 1424 1422
1456 1463 1466 1469 1473 1476 1478 1481 1483 1485 1486 1487 1488 1489 1490 1490 1490 1490 1489 1488 1488 1485 1482 1480 1478 1476 1473 1469 1466 1462 1457 1452 1448 1444 1440 1436 1432 1428 1425 1423 1420 1418 1416 1414
1457 1462 1466 1469 1472 1475 1479 1481 1483 1485 1486 1487 1488 1489 1489 1489 1488 1488 1487 1486 1484 1481 1479 1477 1474 1471 1467 1462 1457 1453 1449 1444 1439 1435 1430 1426 1422 1419 1414 1412 1409 1408 1407 1406
1460 1464 1468 1471 1473 1476 1479 1481 1483 1485 1486 1487 1488 1488 1488 1488 1487 1486 1485 1482 1479 1477 1475 1472 1468 1463 1459 1455 1452 1446 1441 1436 1431 1426 1421 1416 1412 1409 1404 1400 1398 1396 1398 1398
1462 1466 1470 1473 1476 1477 1479 1482 1484 1485 1486 1487 1487 1487 1487 1486 1485 1483 1482 1479 1477 1475 1472 1467 1461 1457 1453 1449 1445 1439 1435 1430 1426 1422 1414 1409 1405 1400 1395 1392 1390 1390 1391 1391
1465 1468 1471 1474 1476 1479 1481 1482 1484 1485 1486 1486 1486 1486 1485 1483 1482 1480 1477 1476 1473 1470 1466 1460 1456 1451 1448 1443 1439 1434 1429 1425 1421 1416 1411 1406 1399 1392 1389 1387 1385 1385 1385 1385
1468 1470 1473 1476 1477 1479 1481 1483 1484 1484 1484 1484 1484 1483 1482 1480 1478 1477 1474 1472 1468 1464 1460 1456 1452 1449 1445 1440 1435 1430 1426 1421 1417 1412 1407 1403 1399 1394 1388 1385 1382 1380 1379 1378
1469 1471 1473 1476 1477 1479 1481 1482 1482 1482 1482 1481 1481 1479 1478 1476 1474 1472 1469 1467 1463 1459 1456 1452 1449 1445 1441 1437 1432 1427 1423 1418 1413 1409 1405 1401 1397 1394 1390 1386 1383 1380 1378 1375
1469 1472 1474 1476 1477 1478 1479 1480 1481 1481 1480 1479 1477 1476 1474 1472 1471 1469 1466 1463 1459 1455 1452 1449 1445 1442 1437 1433 1428 1424 1420 1415 1411 1407 1403 1399 1395 1391 1388 1384 1381 1378 1375 1371
1470 1472 1474 1475 1476 1477 1479 1479 1479 1479 1478 1477 1475 1473 1471 1468 1467 1465 1462 1459 1455 1452 1449 1446 1442 1438 1434 1430 1425 1421 1417 1413 1408 1405 1400 1396 1392 1388 1384 1381 1377 1373 1371 1368
1469 1471 1473 1474 1475 1476 1476 1477 1476 1475 1474 1473 1471 1470 1468 1465 1463 1461 1458 1455 1452 1449 1446 1442 1438 1434 1431 1427 1422 1418 1414 1410 1406 1402 1398 1394 1390 1386 1382 1378 1375 1371 1368 1365
1469 1470 1471 1472 1473 1474 1474 1474 1473 1472 1470 1469 1467 1466 1464 1461 1459 1456 1454 1451 1448 1445 1442 1438 1434 1431 1428 1423 1419 1415 1411 1408 1404 1400 1396 1392 1388 1384 1380 1376 1372 1369 1365 1362